This demonstration page uses our WeatherBlox Daily Observations layout. Learn more.

Left ArrowRight Arrow

39.12711, -84.51439

Hourly Observations for October 29, 2020

Temp ( °F °C ) Dew Point ( °F °C ) Humidity (%) Winds ( mph kmh ) Pressure ( in mb ) Visibility ( mi km ) Precip ( " mm )
12:36 am 00:36 Cloudy with Light Rain 52 11.1 51 10.6 97 97 Calm 29.90 1012 4 6 0.06 1.52
12:53 am 00:53 Cloudy with Light Rain 52 11.1 51 10.6 97 97 Calm 29.87 1012 4 6 0.07 1.78
1:02 am 01:02 Cloudy with Light Rain 53 11.7 51 10.6 93 93 Calm 29.87 1012 4 6 0.00 0.00
1:27 am 01:27 Cloudy with Light Rain 53 11.7 51 10.6 93 93 NNE 3 6 29.85 1011 5 8 0.00 0.00
1:50 am 01:50 Cloudy with Light Rain 52 11 52 11 100 100 NNE 3 6 29.85 1011 4 6 0.02 0.51
1:53 am 01:53 Cloudy with Light Rain 52 11.1 51 10.6 97 97 N 5 7 29.83 1010 4 6 0.02 0.51
2:53 am 02:53 Cloudy with Light Rain 53 11.7 51 10.6 93 93 NNE 5 7 29.81 1010 4 6 0.05 1.27
3:08 am 03:08 Cloudy with Light Rain 53 11.7 52 11.1 96 96 NNE 6 9 29.81 1010 4 6 0.01 0.25
3:34 am 03:34 Cloudy with Light Rain 53 11.7 52 11.1 96 96 NE 5 7 29.79 1009 3 5 0.04 1.02
3:53 am 03:53 Cloudy with Light Rain 53 11.7 52 11.1 96 96 NE 5 7 29.78 1008 3 5 0.06 1.52
4:03 am 04:03 Cloudy with Light Rain 53 11.7 52 11.1 96 96 NE 7 11 29.76 1008 3 5 0.01 0.25
4:53 am 04:53 Cloudy with Rain 53 11.7 52 11.1 96 96 E 6 9 29.70 1006 3 4 0.07 1.78
5:04 am 05:04 Cloudy with Heavy Rain 53 11.7 52 11.1 96 96 NE 8 13 29.70 1006 3 5 0.03 0.76
5:18 am 05:18 Cloudy with Heavy Rain 53 11.7 52 11.1 96 96 NE 8 13 29.68 1005 3 4 0.10 2.54
5:48 am 05:48 Cloudy with Heavy Rain 54 12 54 12 100 100 Calm 29.69 1006 2 3 0.21 5.33
5:53 am 05:53 Cloudy with Heavy Rain 54 12.2 53 11.7 97 97 N 7 11 29.67 1005 2 3 0.23 5.84
6:23 am 06:23 Cloudy with Rain 54 12.2 53 11.7 97 97 NNE 8 13 29.66 1005 3 5 0.12 3.05
6:29 am 06:29 Cloudy with Heavy Rain 54 12.2 53 11.7 97 97 NNE 13 20 29.66 1005 3 4 0.15 3.81
6:37 am 06:37 Cloudy with Heavy Rain 54 12.2 52 11.1 93 93 NNE 9 15 29.66 1005 3 4 0.19 4.83
6:46 am 06:46 Cloudy with Heavy Rain 54 12.2 53 11.7 97 97 NNE 8 13 29.66 1005 3 5 0.23 5.84
6:53 am 06:53 Cloudy with Heavy Rain 54 12.2 53 11.7 97 97 N 8 13 29.67 1005 3 4 0.26 6.60
7:01 am 07:01 Cloudy with Heavy Rain 54 12.2 52 11.1 93 93 N 6 9 29.67 1005 3 5 0.05 1.27
7:53 am 07:53 Cloudy with Rain 53 11.7 51 10.6 93 93 NNE 13 20 29.64 1004 3 5 0.22 5.59
8:53 am 08:53 Cloudy with Rain 52 11.1 50 10 93 93 NNE 8 13 29.64 1004 3 5 0.15 3.81
9:51 am 09:51 Cloudy with Rain 52 11 50 10 94 94 NNE 9 15 29.65 1004 2 3 0.21 5.33
9:53 am 09:53 Cloudy with Light Rain 52 11.1 50 10 93 93 NNE 9 15 29.65 1004 2 3 0.21 5.33
10:53 am 10:53 Cloudy with Rain 50 10 50 10 100 100 NNE 13 20 29.64 1004 2 3 0.19 4.83
11:53 am 11:53 Cloudy with Light Rain 50 10 50 10 100 100 NNE 10 17 29.65 1004 4 6 0.20 5.08
12:53 pm 12:53 Cloudy with Light Rain 50 10 50 10 100 100 NNE 10 17 29.65 1004 6 10 0.02 0.51
1:53 pm 13:53 Cloudy with Light Rain 50 10 49 9.4 96 96 NNE 12 19 29.65 1004 4 6 0.00 0.00
2:53 pm 14:53 Cloudy 50 10 49 9.4 96 96 NNE 14 22 29.63 1003 10 16 0.00 0.00
3:53 pm 15:53 Cloudy with Light Rain 50 10 49 9.4 96 96 NNE 9 15 29.63 1004 10 16 0.00 0.00
4:17 pm 16:17 Cloudy with Light Rain 50 10 47 8.3 89 89 N 10 17 29.68 1005 3 4 0.02 0.51
4:30 pm 16:30 Cloudy with Rain 49 9.4 47 8.3 93 93 N 10 17 29.69 1005 1 2 0.04 1.02
4:50 pm 16:50 Cloudy with Light Rain 50 10 46 8 88 88 N 12 19 29.69 1005 3 4 0.07 1.78
4:53 pm 16:53 Cloudy with Light Rain 50 10 48 8.9 93 93 NNE 12 19 29.67 1005 3 4 0.07 1.78
5:00 pm 17:00 Cloudy with Light Rain 50 10 47 8.3 89 89 N 14 22 29.69 1005 3 5 0.00 0.00
5:26 pm 17:26 Cloudy with Light Rain 49 9.4 47 8.3 93 93 N 10 17 29.72 1006 5 8 0.01 0.25
5:53 pm 17:53 Cloudy with Rain 48 8.9 46 7.8 93 93 N 15 24 29.72 1006 3 5 0.03 0.76
6:25 pm 18:25 Cloudy with Light Rain 48 8.9 45 7.2 89 89 N 10 17 29.73 1007 5 8 0.02 0.51
6:33 pm 18:33 Cloudy with Light Rain 48 8.9 45 7.2 89 89 N 10 17 29.73 1007 6 10 0.02 0.51
6:41 pm 18:41 Cloudy with Light Rain 48 8.9 45 7.2 89 89 N 9 15 29.73 1007 7 11 0.02 0.51
6:53 pm 18:53 Cloudy with Light Rain 48 8.9 45 7.2 89 89 NNE 10 17 29.72 1006 7 11 0.02 0.51
7:53 pm 19:53 Cloudy with Light Rain 48 8.9 45 7.2 89 89 N 12 19 29.75 1008 6 10 0.01 0.25
8:53 pm 20:53 Cloudy with Light Rain 47 8.3 44 6.7 90 90 N 12 19 29.78 1009 5 8 0.03 0.76
9:53 pm 21:53 Cloudy with Rain 46 7.8 43 6.1 89 89 N 8 13 29.83 1010 5 8 0.02 0.51
10:53 pm 22:53 Cloudy with Light Rain 46 7.8 43 6.1 89 89 NNW 10 17 29.88 1012 8 13 0.02 0.51
11:21 pm 23:21 Cloudy 47 8.3 44 6.7 90 90 NNW 5 7 29.89 1012 8 13 0.00 0.00
11:36 pm 23:36 Cloudy 47 8.3 43 6.1 86 86 NNW 6 9 29.90 1013 8 13 0.00 0.00
11:53 pm 23:53 Cloudy 47 8.3 44 6.7 90 90 NW 7 11 29.90 1013 9 14 0.00 0.00

Powered by AerisWeather